Temp
3 3 2 2 3 3 3 4 4 4 4 4 4 4 3 4 4 4 4 4 4 4 4 4 4 4 4
2 1 1 1 1 2 2 2 2 3 3 3 3 3 3 3 3 3 3 2 2 2 3 3 3 4 4
2 1 1 1 1 1 1 1 1 1 2 2 2 2 2 2 1 1 1 1 1 1 2 2 2 2 2
3 2 2 1 1 2 3 1 1 0 1 1 1 1 1 1 1 1 1 1 1 1 1 1 1 1 1
3 2 2 2 2 1 2 1 1 -0 1 1 0 0 0 -0 0 1 1 0 -0 -0 0 0 1 1 1
1 3 1 1 1 0 0 1 2 -1 -1 1 -1 -0 -1 -1 -1 -0 -0 -1 -1 -1 -0 0 0 0 1
1 1 1 -1 -2 -2 -1 -1 0 -1 -2 0 -1 -0 -1 -1 -1 -1 -0 -1 -1 -1 -1 -0 -0 -0 -0
-1 -1 -2 -2 -2 -3 -2 -2 -2 -2 -3 -1 -1 -0 -1 -1 -1 -1 -1 -1 -2 -2 -2 -2 -1 -2 -1
-3 -2 -2 -3 -2 -2 -2 -2 -0 -1 -3 -3 -2 -2 -2 -2 -2 -2 -2 -2 -3 -3 -3 -2 -3 -2 -2
-3 -3 -3 -3 -3 -3 -3 -3 -2 -2 -3 -3 -3 -3 -2 -3 -3 -3 -3 -3 -3 -3 -3 -3 -3 -3 -2
-3 -3 -3 -3 -4 -4 -5 -5 -4 -3 -4 -5 -5 -4 -4 -3 -3 -3 -3 -3 -3 -4 -4 -3 -2 -3 -3
-3 -3 -3 -4 -5 -5 -5 -5 -5 -6 -6 -6 -5 -5 -5 -5 -4 -3 -3 -4 -4 -5 -5 -5 -4 -3 -4
-3 -3 -4 -5 -5 -6 -6 -6 -6 -6 -6 -6 -6 -6 -6 -5 -5 -5 -4 -4 -5 -5 -5 -5 -5 -4 -4
-3 -4 -5 -6 -5 -5 -6 -6 -6 -6 -6 -6 -6 -6 -6 -6 -6 -5 -5 -5 -5 -5 -5 -5 -5 -5 -4
-4 -4 -4 -5 -5 -5 -6 -6 -6 -6 -6 -6 -6 -7 -7 -7 -6 -5 -5 -5 -5 -5 -5 -5 -5 -5 -4
-5 -5 -5 -5 -5 -6 -6 -6 -6 -6 -6 -6 -6 -6 -5 -5 -5 -5 -5 -5 -5 -5 -5 -6 -5 -5 -4
-5 -5 -5 -5 -5 -5 -6 -6 -6 -6 -6 -6 -7 -7 -6 -4 -3 -5 -5 -5 -5 -4 -4 -5 -4 -4 -4
Height
825 824 824 824 824 823 822 823 823 822 822 822 821 822 823 823 824 826 826 827 829 829 830 831 833 834 834
825 824 823 824 825 822 822 823 823 822 822 822 821 821 821 822 824 825 825 826 827 827 827 829 831 833 833
824 824 824 824 824 823 823 823 822 822 822 821 820 820 820 821 823 824 825 825 825 825 826 828 830 831 833
824 825 826 826 825 825 825 825 824 824 822 821 820 820 821 821 822 822 823 823 824 825 826 827 827 830 830
824 826 827 826 825 825 825 825 824 823 822 821 820 820 821 820 820 820 820 821 822 823 823 824 827 828 829
824 826 827 827 826 825 826 825 824 823 822 821 819 820 819 819 818 818 818 819 820 821 823 825 825 826 827
824 827 827 826 825 826 826 826 824 824 822 821 820 819 818 818 817 817 817 818 819 821 822 823 823 824 824
825 827 826 826 826 826 826 825 824 823 823 821 820 819 818 818 816 816 816 816 817 819 819 820 820 820 820
825 826 825 825 826 826 826 825 823 823 823 822 821 819 818 817 816 815 815 815 816 816 817 818 818 818 817
826 825 825 825 825 825 825 825 824 823 823 823 821 821 818 816 815 816 816 815 814 814 814 814 814 814 813
825 825 825 825 825 824 824 823 824 823 823 823 822 821 821 818 816 815 814 813 812 811 810 809 808 809 809
824 824 824 824 823 823 822 822 822 822 822 821 821 821 820 818 815 813 812 810 808 807 805 804 803 802 802
822 821 821 821 820 820 819 819 818 818 818 818 818 818 818 816 813 811 810 807 805 803 801 801 800 800 799
820 819 819 818 819 818 818 817 816 815 814 814 814 814 813 812 811 808 806 805 801 800 799 797 796 795 793
817 816 816 816 816 816 815 814 814 813 812 812 811 809 808 807 805 802 800 799 797 796 795 792 790 789 788
813 813 813 813 813 813 812 812 810 809 809 808 808 806 803 799 796 795 795 794 793 792 791 789 784 783 781
809 809 809 809 809 809 809 808 806 805 804 804 803 803 800 796 793 791 790 790 789 787 786 783 779 775 776
Wind_Speed
1 4 4 5 4 2 2 2 1 1 3 3 4 4 4 4 5 4 3 5 7 9 8 7 7 7 7
0 3 4 4 3 3 3 3 5 6 8 8 7 6 6 6 7 7 7 6 5 4 3 4 6 7 7
3 2 2 2 3 4 4 4 3 4 4 4 3 3 3 2 0 1 2 3 4 4 4 4 5 6 7
3 2 0 1 2 3 2 4 3 4 5 5 4 4 4 5 6 7 8 7 4 5 7 7 8 9 8
3 1 1 1 1 2 2 3 2 4 4 4 4 5 5 7 9 11 11 10 9 8 7 7 8 8 8
2 1 1 0 1 2 3 4 2 4 6 6 6 4 4 3 7 8 7 6 6 6 7 8 9 9 9
2 1 1 1 0 1 2 3 4 5 6 4 4 4 3 3 5 5 5 6 7 6 8 9 10 9 9
4 2 2 1 0 0 2 3 3 2 4 3 4 4 5 5 8 6 4 3 5 6 7 8 10 10 12
3 2 1 0 3 1 1 3 2 1 3 3 4 7 6 4 3 3 7 7 6 6 8 8 9 11 14
1 1 2 1 3 1 2 2 2 2 1 4 4 5 4 2 2 3 6 9 10 11 12 13 15 14 14
2 2 2 2 2 1 0 1 3 4 2 4 3 5 3 6 8 8 9 10 9 11 13 16 18 17 14
3 3 4 4 4 3 4 5 5 7 8 6 4 5 7 10 8 5 9 12 15 16 13 14 17 15 16
5 5 4 5 7 6 6 7 8 10 10 10 11 11 10 11 12 13 13 8 18 17 15 11 10 13 14
6 5 5 5 5 6 7 7 9 8 8 9 11 11 13 15 16 18 16 10 8 14 15 17 16 16 17
8 7 7 7 8 8 8 8 10 9 8 7 8 11 15 17 18 19 18 16 16 15 13 17 17 15 16
9 9 9 9 9 9 10 10 11 10 10 9 8 9 10 14 19 20 15 14 13 12 13 17 21 17 18
11 11 11 10 10 11 11 11 12 12 12 10 9 9 9 8 12 15 16 13 12 15 16 18 22 24 19
Wind_Direction
291 339 351 357 342 342 334 321 329 331 339 325 329 327 332 323 307 282 263 256 255 261 270 273 265 265 254
158 23 20 1 337 2 345 316 319 299 293 290 296 296 294 287 282 285 285 269 270 268 274 274 273 271 262
148 81 11 5 10 24 19 13 4 342 335 330 315 335 359 28 131 280 273 267 288 268 240 236 256 267 263
107 107 44 352 35 8 355 22 8 3 355 349 349 323 290 259 253 253 259 261 246 268 268 266 264 261 260
118 141 237 356 19 356 330 330 334 2 343 340 335 319 303 296 277 279 270 268 266 267 267 267 254 250 251
138 207 206 340 10 1 333 322 300 356 343 322 331 323 315 309 273 266 266 272 271 268 262 254 257 258 258
123 160 194 4 288 341 318 309 302 317 332 299 334 328 326 309 287 273 267 259 251 252 257 257 258 253 256
103 129 118 123 345 221 289 302 292 326 352 292 331 315 310 300 289 274 276 261 226 241 265 249 250 257 265
151 172 169 205 178 200 282 308 275 279 354 326 334 325 314 312 309 173 203 215 243 266 262 257 269 272 272
200 189 145 128 175 238 240 259 293 275 276 338 323 351 320 296 303 257 264 274 269 262 259 264 275 280 275
179 181 179 180 181 196 251 255 266 263 283 339 300 315 290 302 299 281 277 281 277 278 278 273 269 269 269
215 220 224 228 240 252 260 262 266 260 261 278 262 277 287 293 280 283 291 287 285 283 276 281 279 280 262
241 239 236 247 267 281 287 295 289 283 266 265 262 264 262 261 273 286 302 292 289 283 281 267 268 282 276
250 245 248 263 275 271 279 283 284 281 272 264 260 257 263 262 268 273 277 272 274 286 283 280 276 273 268
247 248 250 256 263 270 269 273 271 278 275 269 265 261 259 259 264 264 270 270 272 275 276 280 278 271 265
246 249 251 257 264 265 266 267 269 272 276 276 273 282 278 274 254 257 262 265 274 275 269 272 280 278 273
245 246 249 255 259 264 264 266 267 272 275 272 265 257 266 271 278 258 258 269 275 281 279 271 275 279 277